Regional Weather Roundup
Issued by NWS

Home | Current Version | Previous Version | Text Only | Print | Product List | Glossary Off
Versions: 1 2 3 4 5 6 7 8 9 10 11 12 13 14 15 16 17 18 19 20 21 22 23 24 25 26 27 28 29 30 31 32 33 34 35 36 37 38 39 40 41 42 43 44 45 46 47 48 49 50

000
ASUS43 KFSD 301002
RWRSD

WEATHER ROUNDUP FOR SOUTH DAKOTA
NATIONAL WEATHER SERVICE SIOUX FALLS SD
500 AM CDT TUE JUN 30 2015

NOTE: "FAIR" INDICATES FEW OR NO CLOUDS BELOW 12,000 FEET WITH NO
SIGNIFICANT WEATHER AND/OR OBSTRUCTIONS TO VISIBILITY.


SDZ001>005-009-010-012>017-301100-
NORTHWEST AND NORTH CENTRAL SOUTH DAKOTA

CITY           SKY/WX    TMP DP  RH WIND       PRES   REMARKS
BUFFALO          N/A     64  57  78 W8        29.89R
FAITH            N/A     70  60  70 NW3       29.90S
MOBRIDGE       CLOUDY    68  66  93 SE9       29.88F
$$

SDZ012>016-024>037-041>051-057-063-072>074-301100-
SOUTHWEST AND SOUTH CENTRAL SOUTH DAKOTA

CITY           SKY/WX    TMP DP  RH WIND       PRES   REMARKS
RAPID CTY ARPT MOCLDY    69  55  60 W3        29.96F
PIERRE         MOCLDY    69  62  78 E9        29.92R
CUSTER         MOCLDY    62  51  67 W6        30.15F
ELLSWORTH AFB  CLOUDY    69  57  65 SW2       29.96S
PHILIP         MOCLDY    67  62  84 NW6       29.90F
PINE RIDGE     MOCLDY    61  56  83 NW5       30.01F
WINNER         CLOUDY    73  55  53 E8G18     29.95R
$$

SDZ004>011-016>023-039-040-301100-
NORTHEAST SOUTH DAKOTA

CITY           SKY/WX    TMP DP  RH WIND       PRES   REMARKS
ABERDEEN       CLOUDY    65  62  90 N3        29.95R
WATERTOWN      CLOUDY    58  56  93 NE5       29.94R FOG
BROOKINGS      PTCLDY    59  55  88 W3        29.97R
SISSETON         N/A     60  58  92 NW5       29.92R
$$

SDZ017-020-022-023-036>040-048>070-301100-
SOUTHEAST SOUTH DAKOTA

CITY           SKY/WX    TMP DP  RH WIND       PRES   REMARKS
SIOUX FALLS    CLOUDY    63  60  90 W5        29.94R
HURON          CLOUDY    67  64  90 NE5       29.94R
CHAMBERLAIN    MOCLDY    67  63  86 E5        29.94R
MITCHELL       CLOUDY    68  65  90 CALM      29.94F
YANKTON        MOCLDY    66  61  82 CALM      29.94R THUNDER
$$

ABBREVIATIONS USED IN REMARKS
   TC - TEMPERATURE IN CELSIUS
  WCI - WIND CHILL INDEX
   HX - HEAT INDEX
  VSB - VISIBILITY




USA.gov is the U.S. government's official web portal to all federal, state and local government web resources and services.